Port Angeles, WA
on Sunday, February 3, 2013

Sunday
Previous Day Next Day
Daily Summary
 ActualAverageRecord
Temperature
Mean Temperature °F / °C °F / °C  
Max Temperature 48°F / 9°C 46°F / 7°C 65°F / 18°C (1963)
Min Temperature 36°F / 2°C 34°F / 1°C 12°F / -11°C (1989)
Degree Days
Heating Degree Days 23    
Moisture
Dew Point 39°F / 4°C   
Average Humidity 91    
Maximum Humidity 100    
Minimum Humidity 71    
Precipitation
Precipitation 0.00 in / 0.00 cm in / cm in / cm ()
Wind
Wind Speed 3 mph / 5 km/h   
Max Wind Speed 7 mph / 11 km/h   
Max Gust Speed mph / km/h   
Visibility 7 miles / 11 kilometers   
Events Fog , Rain   
Averages and records for this station are not official NWS values.
Key: T is trace of precipitation, MM is missing value
Source: NWS Daily Summary
Seasonal Weather Averages
Time(PST)TemperatureDew PointHumidity Pressure Visibility Wind DirectionWind SpeedGust SpeedPrecipitationEvents Conditions
12:46 AM 37.9°F / 3.3°C 37.0°F / 2.8°C 97% 30.28 in / 1025.3 hPa 0.5 miles / 0.8 kilometers SW 3.5 mph / 5.6 km/h - N/A Fog Fog
12:53 AM 37.9°F / 3.3°C 37.0°F / 2.8°C 97% 30.30 in / 1025.9 hPa 0.5 miles / 0.8 kilometers SW 5.8 mph / 9.3 km/h - N/A Fog Fog
1:53 AM 39.0°F / 3.9°C 37.0°F / 2.8°C 93% 30.26 in / 1024.6 hPa 0.5 miles / 0.8 kilometers SSE 3.5 mph / 5.6 km/h - N/A Fog Fog
2:02 AM 39.0°F / 3.9°C 37.0°F / 2.8°C 93% 30.26 in / 1024.6 hPa 0.2 miles / 0.4 kilometers South 4.6 mph / 7.4 km/h - N/A Fog Fog
2:20 AM 39.0°F / 3.9°C 37.0°F / 2.8°C 93% 30.26 in / 1024.6 hPa 0.5 miles / 0.8 kilometers South 4.6 mph / 7.4 km/h - N/A Fog Fog
2:53 AM 37.9°F / 3.3°C 37.0°F / 2.8°C 97% 30.26 in / 1024.7 hPa 0.2 miles / 0.4 kilometers SSW 4.6 mph / 7.4 km/h - N/A Fog Fog
3:07 AM 37.9°F / 3.3°C 37.0°F / 2.8°C 97% 30.25 in / 1024.3 hPa 0.5 miles / 0.8 kilometers SW 4.6 mph / 7.4 km/h - N/A Fog Fog
3:19 AM 37.9°F / 3.3°C 37.0°F / 2.8°C 97% 30.25 in / 1024.3 hPa 1.0 miles / 1.6 kilometers SSW 4.6 mph / 7.4 km/h - N/A   Mist
3:31 AM 37.9°F / 3.3°C 37.9°F / 3.3°C 100% 30.26 in / 1024.6 hPa 3.0 miles / 4.8 kilometers Variable 3.5 mph / 5.6 km/h - N/A   Overcast
3:53 AM 37.9°F / 3.3°C 36.0°F / 2.2°C 93% 30.26 in / 1024.6 hPa 4.0 miles / 6.4 kilometers Calm Calm - N/A   Overcast
4:04 AM 37.0°F / 2.8°C 36.0°F / 2.2°C 96% 30.26 in / 1024.6 hPa 1.5 miles / 2.4 kilometers Calm Calm - N/A   Overcast
4:13 AM 37.9°F / 3.3°C 36.0°F / 2.2°C 93% 30.26 in / 1024.6 hPa 0.5 miles / 0.8 kilometers Calm Calm - N/A Fog Fog
4:21 AM 37.9°F / 3.3°C 37.0°F / 2.8°C 97% 30.25 in / 1024.3 hPa 0.2 miles / 0.4 kilometers Calm Calm - N/A Fog Fog
4:42 AM 37.9°F / 3.3°C 36.0°F / 2.2°C 93% 30.25 in / 1024.3 hPa 0.5 miles / 0.8 kilometers ESE 4.6 mph / 7.4 km/h - N/A Fog Fog
4:53 AM 37.9°F / 3.3°C 36.0°F / 2.2°C 93% 30.26 in / 1024.7 hPa 0.5 miles / 0.8 kilometers South 4.6 mph / 7.4 km/h - N/A Fog Fog
5:11 AM 37.0°F / 2.8°C 36.0°F / 2.2°C 96% 30.25 in / 1024.3 hPa 2.0 miles / 3.2 kilometers South 5.8 mph / 9.3 km/h - N/A   Overcast
5:15 AM 37.0°F / 2.8°C 36.0°F / 2.2°C 96% 30.25 in / 1024.3 hPa 3.0 miles / 4.8 kilometers South 6.9 mph / 11.1 km/h - N/A   Overcast
5:51 AM 37.4°F / 3.0°C 35.6°F / 2.0°C 93% 30.27 in / 1024.9 hPa 10.0 miles / 16.1 kilometers SSW 3.5 mph / 5.6 km/h - N/A   Overcast
5:53 AM 37.0°F / 2.8°C 36.0°F / 2.2°C 96% 30.27 in / 1025.1 hPa 10.0 miles / 16.1 kilometers SW 3.5 mph / 5.6 km/h - N/A   Overcast
6:10 AM 36.0°F / 2.2°C 33.1°F / 0.6°C 89% 30.26 in / 1024.6 hPa 10.0 miles / 16.1 kilometers South 3.5 mph / 5.6 km/h - N/A   Overcast
6:53 AM 37.0°F / 2.8°C 35.1°F / 1.7°C 93% 30.27 in / 1025.0 hPa 10.0 miles / 16.1 kilometers SW 4.6 mph / 7.4 km/h - N/A   Overcast
7:53 AM 37.0°F / 2.8°C 35.1°F / 1.7°C 93% 30.27 in / 1024.9 hPa 10.0 miles / 16.1 kilometers WSW 6.9 mph / 11.1 km/h - N/A   Mostly Cloudy
8:10 AM 37.0°F / 2.8°C 35.1°F / 1.7°C 93% 30.26 in / 1024.6 hPa 10.0 miles / 16.1 kilometers SW 6.9 mph / 11.1 km/h - N/A   Scattered Clouds
8:53 AM 37.9°F / 3.3°C 37.0°F / 2.8°C 97% 30.27 in / 1024.9 hPa 10.0 miles / 16.1 kilometers SW 3.5 mph / 5.6 km/h - N/A   Clear
9:53 AM 42.1°F / 5.6°C 37.9°F / 3.3°C 85% 30.26 in / 1024.6 hPa 10.0 miles / 16.1 kilometers Calm Calm - N/A   Clear
10:53 AM 44.1°F / 6.7°C 39.0°F / 3.9°C 82% 30.30 in / 1026.1 hPa 10.0 miles / 16.1 kilometers WSW 3.5 mph / 5.6 km/h - N/A   Overcast
11:18 AM 45.0°F / 7.2°C 37.9°F / 3.3°C 76% 30.27 in / 1024.9 hPa 10.0 miles / 16.1 kilometers Calm Calm - N/A   Mostly Cloudy
11:53 AM 45.0°F / 7.2°C 39.0°F / 3.9°C 80% 30.29 in / 1025.5 hPa 10.0 miles / 16.1 kilometers Calm Calm - N/A   Mostly Cloudy
12:12 PM 46.0°F / 7.8°C 39.9°F / 4.4°C 79% 30.27 in / 1024.9 hPa 10.0 miles / 16.1 kilometers Calm Calm - N/A   Overcast
12:34 PM 48.0°F / 8.9°C 39.9°F / 4.4°C 74% 30.25 in / 1024.3 hPa 10.0 miles / 16.1 kilometers Calm Calm - N/A   Mostly Cloudy
12:53 PM 48.9°F / 9.4°C 39.9°F / 4.4°C 71% 30.25 in / 1024.2 hPa 10.0 miles / 16.1 kilometers Variable 3.5 mph / 5.6 km/h - N/A   Mostly Cloudy
1:35 PM 48.0°F / 8.9°C 39.9°F / 4.4°C 74% 30.24 in / 1023.9 hPa 10.0 miles / 16.1 kilometers North 4.6 mph / 7.4 km/h - N/A   Mostly Cloudy
1:53 PM 48.0°F / 8.9°C 39.9°F / 4.4°C 74% 30.24 in / 1024.0 hPa 10.0 miles / 16.1 kilometers NNE 3.5 mph / 5.6 km/h - N/A   Overcast
2:53 PM 46.9°F / 8.3°C 39.9°F / 4.4°C 77% 30.25 in / 1024.2 hPa 10.0 miles / 16.1 kilometers Calm Calm - N/A   Overcast
3:05 PM 46.9°F / 8.3°C 39.9°F / 4.4°C 77% 30.24 in / 1023.9 hPa 10.0 miles / 16.1 kilometers Calm Calm - N/A   Overcast
3:53 PM 46.0°F / 7.8°C 41.0°F / 5.0°C 83% 30.25 in / 1024.2 hPa 10.0 miles / 16.1 kilometers Calm Calm - 0.00 in / 0.0 cm Rain Light Rain
4:53 PM 45.0°F / 7.2°C 43.0°F / 6.1°C 93% 30.24 in / 1023.8 hPa 10.0 miles / 16.1 kilometers Calm Calm - 0.00 in / 0.0 cm Rain Light Rain
5:00 PM 45.0°F / 7.2°C 43.0°F / 6.1°C 93% 30.23 in / 1023.6 hPa 10.0 miles / 16.1 kilometers Calm Calm - 0.00 in / 0.0 cm Rain Light Rain
5:07 PM 45.0°F / 7.2°C 43.0°F / 6.1°C 93% 30.22 in / 1023.2 hPa 10.0 miles / 16.1 kilometers Calm Calm - 0.00 in / 0.0 cm Rain Light Rain
5:53 PM 44.1°F / 6.7°C 42.1°F / 5.6°C 93% 30.23 in / 1023.7 hPa 10.0 miles / 16.1 kilometers Calm Calm - 0.00 in / 0.0 cm Rain Light Rain
6:53 PM 44.1°F / 6.7°C 42.1°F / 5.6°C 93% 30.23 in / 1023.7 hPa 9.0 miles / 14.5 kilometers Calm Calm - 0.00 in / 0.0 cm Rain Light Rain
7:53 PM 44.1°F / 6.7°C 42.1°F / 5.6°C 93% 30.22 in / 1023.3 hPa 10.0 miles / 16.1 kilometers Calm Calm - 0.00 in / 0.0 cm Rain Light Rain
8:53 PM 44.1°F / 6.7°C 43.0°F / 6.1°C 96% 30.22 in / 1023.1 hPa 10.0 miles / 16.1 kilometers Calm Calm - 0.00 in / 0.0 cm   Overcast
9:24 PM 44.1°F / 6.7°C 42.1°F / 5.6°C 93% 30.21 in / 1022.9 hPa 9.0 miles / 14.5 kilometers Calm Calm - N/A   Overcast
9:49 PM 44.6°F / 7.0°C 42.8°F / 6.0°C 93% 30.20 in / 1022.6 hPa 10.0 miles / 16.1 kilometers Calm Calm - N/A   Overcast
9:53 PM 44.1°F / 6.7°C 42.1°F / 5.6°C 93% 30.21 in / 1022.9 hPa 10.0 miles / 16.1 kilometers South 3.5 mph / 5.6 km/h - N/A   Overcast
10:05 PM 44.1°F / 6.7°C 42.1°F / 5.6°C 93% 30.20 in / 1022.6 hPa 10.0 miles / 16.1 kilometers Calm Calm - N/A   Overcast
10:12 PM 44.1°F / 6.7°C 42.1°F / 5.6°C 93% 30.21 in / 1022.9 hPa 10.0 miles / 16.1 kilometers Calm Calm - N/A   Overcast
10:17 PM 44.1°F / 6.7°C 42.1°F / 5.6°C 93% 30.21 in / 1022.9 hPa 2.5 miles / 4.0 kilometers Calm Calm - N/A   Overcast
10:25 PM 43.0°F / 6.1°C 42.1°F / 5.6°C 97% 30.20 in / 1022.6 hPa 1.8 miles / 2.8 kilometers Calm Calm - N/A   Overcast
10:28 PM 43.0°F / 6.1°C 41.0°F / 5.0°C 93% 30.20 in / 1022.6 hPa 4.0 miles / 6.4 kilometers Calm Calm - N/A   Overcast
10:53 PM 43.0°F / 6.1°C 41.0°F / 5.0°C 93% 30.21 in / 1022.8 hPa 10.0 miles / 16.1 kilometers SSE 3.5 mph / 5.6 km/h - N/A   Overcast
11:53 PM 41.0°F / 5.0°C 39.9°F / 4.4°C 96% 30.18 in / 1021.9 hPa 10.0 miles / 16.1 kilometers ESE 3.5 mph / 5.6 km/h - N/A   Overcast
Moon Phase
Feb. 03 Feb. 10 Feb. 17 Feb. 25 Mar. 04
Sunrise:07:38 AM (PST) Moon Rise:01:14 AM (PST)2/3
Sunset:05:17 PM (PST) Moon Set:10:55 AM (PST)2/3

Copyright © 2014 The Weather Underground, Inc.